This demonstration page uses our WeatherBlox Daily Observations layout. Learn more.

Left ArrowRight Arrow

41.86663, -103.66717

Hourly Observations for April 11, 2016

Temp ( °F °C ) Dew Point ( °F °C ) Humidity (%) Winds ( mph kmh ) Pressure ( in mb ) Visibility ( mi km ) Precip ( " mm )
12:53 am 00:53 Clear 37 2.8 36 2.2 96 96 N 6 9 30.06 1018 10 16 N/A
1:53 am 01:53 Clear 36 2.2 35 1.7 97 97 WSW 5 7 30.05 1018 10 16 N/A
2:53 am 02:53 Mostly Clear 34 1.1 33 0.6 97 97 NW 5 7 30.06 1018 10 16 N/A
3:53 am 03:53 Clear 35 1.7 32 undefined 89 89 NW 3 6 30.08 1019 10 16 N/A
4:53 am 04:53 Cloudy 35 1.7 31 -0.6 85 85 N N/A 30.11 1020 10 16 N/A
5:53 am 05:53 Cloudy 35 1.7 31 -0.6 85 85 ENE 5 7 30.13 1020 10 16 N/A
6:53 am 06:53 Cloudy 36 2.2 31 -0.6 82 82 NE 5 7 30.14 1021 10 16 N/A
7:53 am 07:53 Partly Cloudy 39 3.9 32 undefined 76 76 E 7 11 30.14 1021 10 16 N/A
8:53 am 08:53 Mostly Sunny 41 5 34 1.1 76 76 SE 8 13 30.14 1021 10 16 N/A
9:53 am 09:53 Sunny 45 7.2 37 2.8 74 74 SE 8 13 30.14 1021 10 16 N/A
10:53 am 10:53 Sunny 49 9.4 39 3.9 69 69 SE 9 15 30.13 1020 10 16 N/A
11:53 am 11:53 Sunny 53 11.7 38 3.3 57 57 ESE 9 15 30.11 1020 10 16 N/A
12:53 pm 12:53 Cloudy 53 11.7 38 3.3 57 57 SSE 9 15 30.09 1019 10 16 N/A
1:53 pm 13:53 Cloudy 57 13.9 36 2.2 45 45 SSW 9 15 30.07 1018 10 16 N/A
2:53 pm 14:53 Mostly Sunny 60 15.6 37 2.8 42 42 S 10 17 30.05 1018 10 16 N/A
3:53 pm 15:53 Partly Cloudy 60 15.6 38 3.3 44 44 S 14 22 30.02 1017 10 16 N/A
4:53 pm 16:53 Mostly Sunny 60 15.6 36 2.2 41 41 SW 8 13 30.02 1017 10 16 N/A
5:53 pm 17:53 Sunny 59 15 37 2.8 44 44 SSW 10 17 30.03 1017 10 16 N/A
6:53 pm 18:53 Sunny 57 13.9 39 3.9 51 51 SSE 8 13 30.03 1017 10 16 N/A
7:53 pm 19:53 Clear 52 11.1 39 3.9 61 61 SE 9 15 30.04 1017 10 16 N/A
8:53 pm 20:53 Clear 48 8.9 38 3.3 68 68 SE 9 15 30.05 1018 10 16 N/A
9:53 pm 21:53 Clear 43 6.1 36 2.2 76 76 E 8 13 30.06 1018 10 16 N/A
10:53 pm 22:53 Clear 42 5.6 36 2.2 79 79 ESE 9 15 30.05 1018 10 16 N/A
11:53 pm 23:53 Clear 42 5.6 37 2.8 82 82 ESE 9 15 30.03 1017 10 16 N/A

Powered by AerisWeather